User: anonymous   Login
Location: Unspecified
(0.0000°N, 0.0000°E)
Time: 06:50:29
(UTC+00:00)
Language:

Nimbus 3 - Orbit

View from above orbital plane
View from above orbital plane
View from above satellite
View from above satellite

Ground track
Ground track

The orbit data is extracted from the following two-line orbital elements,

1  3890U 69037A   17087.71081560 -.00000029 +00000-0 +27634-4 0  9994
2  3890 099.9524 359.7220 0038758 245.7675 167.1436 13.42510681349369
Epoch (UTC): 28 March 2017 17:03:34
Eccentricity: 0.0038758
inclination: 99.9524°
perigee height: 1071 km
apogee height: 1129 km
right ascension of ascending node: 359.7220°
argument of perigee: 245.7675°
revolutions per day: 13.42510681
mean anomaly at epoch: 167.1436°
orbit number at epoch: 34936

The dashed part of the orbit path shows where the satellite is in the earth's shadow,  

DLR